,,,PA_Meas_PMT16A,,PR_Meas_QMR101_102,,RH_Meas_QMH101,,SR_Meas_QMS101,,TA_Meas_QMH101,,GenWind,,GenWind,
date,time,status,PA,status,PR,status,RH,status,SR,status,TA,status,DirAvg,status,SpdAvg,
2010-07-25, 00:00:05,VALID,1001.34,VALID,0,VALID,92.6007,VALID,0,VALID,22.6867,VALID,160,VALID,0.8,
2010-07-25, 00:01:05,VALID,1001.31,VALID,0,VALID,92.4634,VALID,0,VALID,22.7257,VALID,156,VALID,0.541016,
2010-07-25, 00:02:05,VALID,1001.27,VALID,0,VALID,92.4557,VALID,0,VALID,22.7062,VALID,148,VALID,0.616406,
2010-07-25, 00:03:05,VALID,1001.24,VALID,0,VALID,92.2345,VALID,0,VALID,22.7045,VALID,122,VALID,1.33555,
2010-07-25, 00:04:05,VALID,1001.26,VALID,0,VALID,92.0514,VALID,0,VALID,22.7257,VALID,118,VALID,0.921094,
2010-07-25, 00:05:05,VALID,1001.23,VALID,0,VALID,92.1582,VALID,0,VALID,22.7257,VALID,98,VALID,1.33164,
2010-07-25, 00:06:05,VALID,1001.18,VALID,0.5,VALID,92.2955,VALID,0,VALID,22.7452,VALID,53,VALID,1.35898,
2010-07-25, 00:07:05,VALID,1001.14,VALID,0,VALID,92.2345,VALID,0,VALID,22.685,VALID,70,VALID,1.16875,
2010-07-25, 00:08:05,VALID,1001.13,VALID,0,VALID,92.3184,VALID,0,VALID,22.7257,VALID,107,VALID,1.01875,
2010-07-25, 00:09:05,VALID,1001.1,VALID,0,VALID,92.4481,VALID,0,VALID,22.7257,VALID,142,VALID,0.670313,
2010-07-25, 00:10:05,VALID,1001.03,VALID,0,VALID,92.2955,VALID,0,VALID,22.7062,VALID,128,VALID,1.91602,
2010-07-25, 00:11:05,VALID,1001.04,VALID,0,VALID,92.0895,VALID,0,VALID,22.724,VALID,119,VALID,2.08008,
2010-07-25, 00:12:05,VALID,1001.01,VALID,0.5,VALID,91.7157,VALID,0,VALID,22.7842,VALID,130,VALID,0.796875,
2010-07-25, 00:13:05,VALID,1000.97,VALID,0,VALID,91.8759,VALID,0,VALID,22.8037,VALID,117,VALID,1.06875,
2010-07-25, 00:14:05,VALID,1000.93,VALID,0,VALID,91.998,VALID,0,VALID,22.7842,VALID,139,VALID,1.25391,
2010-07-25, 00:15:05,VALID,1000.89,VALID,0,VALID,92.2345,VALID,0,VALID,22.763,VALID,127,VALID,0.771875,
2010-07-25, 00:16:05,VALID,1000.87,VALID,0,VALID,92.4023,VALID,0,VALID,22.7647,VALID,127,VALID,0.578125,
2010-07-25, 00:17:05,VALID,1000.82,VALID,0.5,VALID,92.4634,VALID,0,VALID,22.7257,VALID,94,VALID,1.67656,
2010-07-25, 00:18:05,VALID,1000.82,VALID,0,VALID,92.4176,VALID,0,VALID,22.7062,VALID,89,VALID,1.39648,
2010-07-25, 00:19:05,VALID,1000.79,VALID,0,VALID,92.471,VALID,0,VALID,22.7045,VALID,83,VALID,0.939453,
2010-07-25, 00:20:05,VALID,1000.77,VALID,0,VALID,92.5931,VALID,0,VALID,22.7062,VALID,102,VALID,0.937109,
2010-07-25, 00:21:05,VALID,1000.77,VALID,0,VALID,92.6465,VALID,0,VALID,22.6867,VALID,105,VALID,0.919922,
2010-07-25, 00:22:05,VALID,1000.8,VALID,0,VALID,92.6465,VALID,0,VALID,22.7062,VALID,135,VALID,1.68125,
2010-07-25, 00:23:05,VALID,1000.77,VALID,0.5,VALID,92.616,VALID,0,VALID,22.7257,VALID,139,VALID,1.23867,
2010-07-25, 00:24:05,VALID,1000.79,VALID,0,VALID,92.6312,VALID,0,VALID,22.7257,VALID,149,VALID,1.56992,
2010-07-25, 00:25:05,VALID,1000.74,VALID,0,VALID,92.7075,VALID,0,VALID,22.7257,VALID,153,VALID,1.23398,
2010-07-25, 00:26:05,VALID,1000.7,VALID,0,VALID,92.8067,VALID,0,VALID,22.7452,VALID,169,VALID,1.56133,
2010-07-25, 00:27:05,VALID,1000.73,VALID,0.5,VALID,92.9211,VALID,0,VALID,22.7647,VALID,204,VALID,1.87969,
2010-07-25, 00:28:05,VALID,1000.7,VALID,0,VALID,92.8754,VALID,0,VALID,22.7842,VALID,203,VALID,1.88867,
2010-07-25, 00:29:05,VALID,1000.7,VALID,0,VALID,92.883,VALID,0,VALID,22.7842,VALID,220,VALID,1.20156,
2010-07-25, 00:30:05,VALID,1000.71,VALID,0.5,VALID,92.9059,VALID,0,VALID,22.7842,VALID,209,VALID,1.46133,
2010-07-25, 00:31:05,VALID,1000.69,VALID,0,VALID,92.8983,VALID,0,VALID,22.7842,VALID,202,VALID,1.56719,
2010-07-25, 00:32:05,VALID,1000.69,VALID,0,VALID,92.8983,VALID,0,VALID,22.763,VALID,202,VALID,1.68398,
2010-07-25, 00:33:05,VALID,1000.67,VALID,0,VALID,92.9135,VALID,0,VALID,22.763,VALID,203,VALID,1.91328,
2010-07-25, 00:34:05,VALID,1000.66,VALID,0.5,VALID,92.8754,VALID,0,VALID,22.763,VALID,199,VALID,1.82344,
2010-07-25, 00:35:05,VALID,1000.64,VALID,0,VALID,92.8906,VALID,0,VALID,22.786,VALID,199,VALID,1.63437,
2010-07-25, 00:36:05,VALID,1000.65,VALID,0,VALID,92.9135,VALID,0,VALID,22.7435,VALID,208,VALID,1.33555,
2010-07-25, 00:37:05,VALID,1000.62,VALID,0,VALID,92.9593,VALID,0,VALID,22.7257,VALID,196,VALID,1.68867,
2010-07-25, 00:38:05,VALID,1000.61,VALID,0.5,VALID,93.028,VALID,0,VALID,22.724,VALID,198,VALID,1.51367,
2010-07-25, 00:39:05,VALID,1000.61,VALID,0,VALID,93.0966,VALID,0,VALID,22.7257,VALID,197,VALID,1.03047,
2010-07-25, 00:40:05,VALID,1000.58,VALID,0,VALID,93.1729,VALID,0,VALID,22.7062,VALID,211,VALID,0.644922,
2010-07-25, 00:41:05,VALID,1000.6,VALID,0,VALID,93.2568,VALID,0,VALID,22.6655,VALID,179,VALID,1.33516,
2010-07-25, 00:42:05,VALID,1000.59,VALID,0,VALID,93.3103,VALID,0,VALID,22.6477,VALID,171,VALID,1.05352,
2010-07-25, 00:43:05,VALID,1000.62,VALID,0.5,VALID,93.356,VALID,0,VALID,22.646,VALID,161,VALID,1.16523,
2010-07-25, 00:44:05,VALID,1000.56,VALID,0,VALID,93.4247,VALID,0,VALID,22.6867,VALID,176,VALID,1.325,
2010-07-25, 00:45:05,VALID,1000.58,VALID,0,VALID,93.4934,VALID,0,VALID,22.6867,VALID,183,VALID,1.39375,
2010-07-25, 00:46:05,VALID,1000.58,VALID,0,VALID,93.5086,VALID,0,VALID,22.6867,VALID,198,VALID,1.32031,
2010-07-25, 00:47:05,VALID,1000.58,VALID,0.5,VALID,93.5391,VALID,0,VALID,22.6867,VALID,213,VALID,1.10391,
2010-07-25, 00:48:05,VALID,1000.57,VALID,0,VALID,93.562,VALID,0,VALID,22.7062,VALID,204,VALID,0.914063,
2010-07-25, 00:49:05,VALID,1000.53,VALID,0,VALID,93.5849,VALID,0,VALID,22.6867,VALID,206,VALID,1.49219,
2010-07-25, 00:50:05,VALID,1000.53,VALID,0,VALID,93.5697,VALID,0,VALID,22.6672,VALID,215,VALID,1.0418,
2010-07-25, 00:51:04,VALID,1000.55,VALID,0,VALID,93.6078,VALID,0,VALID,22.6477,VALID,197,VALID,0.580859,
2010-07-25, 00:52:04,VALID,1000.53,VALID,0.5,VALID,93.6307,VALID,0,VALID,22.6477,VALID,192,VALID,0.854297,
2010-07-25, 00:53:04,VALID,1000.5,VALID,0,VALID,93.646,VALID,0,VALID,22.6069,VALID,206,VALID,0.828125,
2010-07-25, 00:54:04,VALID,1000.48,VALID,0,VALID,93.6688,VALID,0,VALID,22.6282,VALID,241,VALID,0.816016,
2010-07-25, 00:55:04,VALID,1000.47,VALID,0,VALID,93.6841,VALID,0,VALID,22.6477,VALID,207,VALID,0.384375,
2010-07-25, 00:56:04,VALID,1000.46,VALID,0,VALID,93.7223,VALID,0,VALID,22.6477,VALID,154,VALID,0.490234,
2010-07-25, 00:57:04,VALID,1000.46,VALID,0,VALID,93.7451,VALID,0,VALID,22.6477,VALID,174,VALID,0.6375,
2010-07-25, 00:58:04,VALID,1000.4,VALID,0.5,VALID,93.7985,VALID,0,VALID,22.6672,VALID,175,VALID,0.498047,
2010-07-25, 00:59:04,VALID,1000.38,VALID,0,VALID,93.8138,VALID,0,VALID,22.6867,VALID,191,VALID,0.820703,
2010-07-25, 01:00:04,VALID,1000.35,VALID,0,VALID,93.8062,VALID,0,VALID,22.7062,VALID,166,VALID,0.869531,
2010-07-25, 01:01:04,VALID,1000.33,VALID,0,VALID,93.8291,VALID,0,VALID,22.6867,VALID,163,VALID,0.74375,
2010-07-25, 01:02:04,VALID,1000.3,VALID,0,VALID,93.8291,VALID,0,VALID,22.6867,VALID,163,VALID,0.767187,
2010-07-25, 01:03:04,VALID,1000.26,VALID,0.5,VALID,93.8443,VALID,0,VALID,22.6655,VALID,163,VALID,0.392578,
2010-07-25, 01:04:04,VALID,1000.23,VALID,0,VALID,93.8748,VALID,0,VALID,22.6672,VALID,163,VALID,0.233203,
2010-07-25, 01:05:04,VALID,1000.24,VALID,0,VALID,93.8825,VALID,0,VALID,22.6867,VALID,163,VALID,0.407031,
2010-07-25, 01:06:04,VALID,1000.16,VALID,0,VALID,93.8825,VALID,0,VALID,22.646,VALID,164,VALID,0,
2010-07-25, 01:07:04,VALID,1000.17,VALID,0,VALID,93.8825,VALID,0,VALID,22.6672,VALID,165,VALID,0,
2010-07-25, 01:08:04,VALID,1000.14,VALID,0,VALID,93.913,VALID,0,VALID,22.6672,VALID,165,VALID,0,
2010-07-25, 01:09:04,VALID,1000.11,VALID,0.5,VALID,93.9359,VALID,0,VALID,22.6477,VALID,165,VALID,0.522656,
2010-07-25, 01:10:04,VALID,1000.13,VALID,0,VALID,93.9588,VALID,0,VALID,22.6264,VALID,174,VALID,0.657031,
2010-07-25, 01:11:04,VALID,1000.08,VALID,0,VALID,93.9664,VALID,0,VALID,22.6477,VALID,203,VALID,0.678906,
2010-07-25, 01:12:04,VALID,1000.01,VALID,0.5,VALID,93.9435,VALID,0,VALID,22.646,VALID,194,VALID,0.925781,
2010-07-25, 01:13:04,VALID,1000.01,VALID,0,VALID,93.9588,VALID,0,VALID,22.7062,VALID,198,VALID,0.725,
2010-07-25, 01:14:04,VALID,999.982,VALID,0,VALID,93.9664,VALID,0,VALID,22.685,VALID,201,VALID,0.716016,
2010-07-25, 01:15:04,VALID,999.988,VALID,0,VALID,93.9969,VALID,0.112286,VALID,22.7045,VALID,155,VALID,1.67148,
2010-07-25, 01:16:04,VALID,999.951,VALID,0,VALID,93.974,VALID,0,VALID,22.6655,VALID,184,VALID,1.51836,
2010-07-25, 01:17:04,VALID,999.929,VALID,0.5,VALID,93.9893,VALID,0,VALID,22.646,VALID,181,VALID,1.49375,
2010-07-25, 01:18:04,VALID,999.896,VALID,0,VALID,93.974,VALID,0,VALID,22.6282,VALID,176,VALID,1.99648,
2010-07-25, 01:19:04,VALID,999.881,VALID,0,VALID,93.974,VALID,0,VALID,22.6069,VALID,180,VALID,1.43477,
2010-07-25, 01:20:04,VALID,999.843,VALID,0,VALID,93.9664,VALID,0.112286,VALID,22.6282,VALID,133,VALID,0.807031,
2010-07-25, 01:21:04,VALID,999.788,VALID,0,VALID,93.9588,VALID,0.112286,VALID,22.6069,VALID,167,VALID,0.988281,
2010-07-25, 01:22:04,VALID,999.761,VALID,0.5,VALID,93.9588,VALID,0,VALID,22.6069,VALID,179,VALID,0.930469,
2010-07-25, 01:23:04,VALID,999.716,VALID,0,VALID,93.9435,VALID,0,VALID,22.6069,VALID,173,VALID,0.726953,
2010-07-25, 01:24:04,VALID,999.729,VALID,0,VALID,93.9511,VALID,0,VALID,22.6087,VALID,168,VALID,1.35039,
2010-07-25, 01:25:04,VALID,999.698,VALID,0,VALID,93.9511,VALID,0,VALID,22.6069,VALID,167,VALID,0.832031,
2010-07-25, 01:26:04,VALID,999.626,VALID,0,VALID,93.9588,VALID,0,VALID,22.6477,VALID,167,VALID,0,
2010-07-25, 01:27:04,VALID,999.652,VALID,0,VALID,93.9359,VALID,0,VALID,22.5892,VALID,150,VALID,1.52852,
2010-07-25, 01:28:04,VALID,999.621,VALID,0,VALID,93.9206,VALID,0,VALID,22.5484,VALID,151,VALID,1.10469,
2010-07-25, 01:29:04,VALID,999.593,VALID,0.5,VALID,93.913,VALID,0,VALID,22.5484,VALID,152,VALID,0.634375,
2010-07-25, 01:30:04,VALID,999.551,VALID,0,VALID,93.8825,VALID,0.112286,VALID,22.5306,VALID,121,VALID,1.16641,
2010-07-25, 01:31:04,VALID,999.548,VALID,0,VALID,93.8748,VALID,0,VALID,22.4899,VALID,135,VALID,1.15156,
2010-07-25, 01:32:04,VALID,999.523,VALID,0,VALID,93.8977,VALID,0.112286,VALID,22.5094,VALID,136,VALID,1.05234,
2010-07-25, 01:33:04,VALID,999.521,VALID,0,VALID,93.8596,VALID,0,VALID,22.5289,VALID,136,VALID,1.01797,
2010-07-25, 01:34:04,VALID,999.463,VALID,0,VALID,93.8596,VALID,0,VALID,22.5501,VALID,136,VALID,0.891406,
2010-07-25, 01:35:04,VALID,999.483,VALID,0.5,VALID,93.8672,VALID,0,VALID,22.5484,VALID,136,VALID,0.992578,
2010-07-25, 01:36:04,VALID,999.482,VALID,0,VALID,93.8748,VALID,0,VALID,22.6069,VALID,162,VALID,1.21445,
2010-07-25, 01:37:04,VALID,999.481,VALID,0,VALID,93.8901,VALID,0.112286,VALID,22.646,VALID,164,VALID,1.13164,
2010-07-25, 01:38:04,VALID,999.481,VALID,0,VALID,93.8901,VALID,0.112286,VALID,22.6867,VALID,169,VALID,0.834375,
2010-07-25, 01:39:04,VALID,999.453,VALID,0,VALID,93.8901,VALID,0,VALID,22.7045,VALID,173,VALID,0.5875,
2010-07-25, 01:40:04,VALID,999.462,VALID,0,VALID,93.9206,VALID,0,VALID,22.724,VALID,169,VALID,0.875781,
2010-07-25, 01:41:04,VALID,999.448,VALID,0,VALID,93.9359,VALID,0,VALID,22.7452,VALID,163,VALID,0.787109,
2010-07-25, 01:42:04,VALID,999.392,VALID,0.5,VALID,93.913,VALID,0,VALID,22.7062,VALID,163,VALID,0.63125,
2010-07-25, 01:43:04,VALID,999.389,VALID,0,VALID,93.8977,VALID,0.112286,VALID,22.7045,VALID,163,VALID,0.53125,
2010-07-25, 01:44:04,VALID,999.379,VALID,0,VALID,93.9359,VALID,0,VALID,22.6655,VALID,163,VALID,0.415625,
2010-07-25, 01:45:04,VALID,999.359,VALID,0,VALID,93.9588,VALID,0.112286,VALID,22.685,VALID,163,VALID,0.360547,
2010-07-25, 01:46:04,VALID,999.364,VALID,0,VALID,93.9588,VALID,0.112286,VALID,22.7257,VALID,163,VALID,0.0621094,
2010-07-25, 01:47:04,VALID,999.346,VALID,0,VALID,93.9664,VALID,0.112286,VALID,22.7062,VALID,163,VALID,0.285156,
2010-07-25, 01:48:04,VALID,999.327,VALID,0,VALID,93.974,VALID,0,VALID,22.685,VALID,163,VALID,0.639453,
2010-07-25, 01:49:04,VALID,999.352,VALID,0,VALID,93.974,VALID,0,VALID,22.7062,VALID,163,VALID,0.542578,
2010-07-25, 01:50:04,VALID,999.296,VALID,0,VALID,93.9817,VALID,0,VALID,22.646,VALID,163,VALID,0.399219,
2010-07-25, 01:51:04,VALID,999.311,VALID,0.5,VALID,93.9664,VALID,0.112286,VALID,22.646,VALID,161,VALID,0.712109,
2010-07-25, 01:52:04,VALID,999.269,VALID,0,VALID,93.9893,VALID,0.112286,VALID,22.646,VALID,2,VALID,0.780859,
2010-07-25, 01:53:04,VALID,999.269,VALID,0,VALID,94.0045,VALID,0,VALID,22.6264,VALID,2,VALID,0.790625,
2010-07-25, 01:54:04,VALID,999.211,VALID,0,VALID,93.9893,VALID,0,VALID,22.6069,VALID,2,VALID,0.729688,
2010-07-25, 01:55:04,VALID,999.189,VALID,0,VALID,94.0122,VALID,0,VALID,22.6069,VALID,351,VALID,0.776563,
2010-07-25, 01:56:04,VALID,999.153,VALID,0,VALID,94.0274,VALID,0.112286,VALID,22.6069,VALID,332,VALID,0.894531,
2010-07-25, 01:57:04,VALID,999.128,VALID,0,VALID,94.0122,VALID,0,VALID,22.6069,VALID,332,VALID,0.81875,
2010-07-25, 01:58:04,VALID,999.089,VALID,0,VALID,94.0122,VALID,0,VALID,22.6282,VALID,332,VALID,0.678906,
2010-07-25, 01:59:04,VALID,999.096,VALID,0,VALID,94.0274,VALID,0,VALID,22.6069,VALID,332,VALID,0.65625,
2010-07-25, 02:00:04,VALID,999.065,VALID,0,VALID,94.0427,VALID,0.112286,VALID,22.6264,VALID,333,VALID,0.637891,
2010-07-25, 02:01:04,VALID,999.002,VALID,0,VALID,94.0503,VALID,0,VALID,22.6282,VALID,351,VALID,0.732422,
2010-07-25, 02:02:04,VALID,998.994,VALID,0.5,VALID,94.0427,VALID,0,VALID,22.6087,VALID,351,VALID,0.782031,
2010-07-25, 02:03:04,VALID,998.957,VALID,0,VALID,94.0351,VALID,0,VALID,22.6282,VALID,351,VALID,0.926562,
2010-07-25, 02:04:04,VALID,998.924,VALID,0,VALID,94.0503,VALID,0,VALID,22.5874,VALID,353,VALID,1.21992,
2010-07-25, 02:05:04,VALID,998.927,VALID,0,VALID,94.058,VALID,0,VALID,22.6087,VALID,5,VALID,1.02422,
2010-07-25, 02:06:04,VALID,998.937,VALID,0,VALID,94.0503,VALID,0,VALID,22.5874,VALID,8,VALID,1.35078,
2010-07-25, 02:07:04,VALID,998.95,VALID,0,VALID,94.058,VALID,0,VALID,22.5501,VALID,23,VALID,1.2875,
2010-07-25, 02:08:04,VALID,998.957,VALID,0,VALID,94.0503,VALID,0,VALID,22.5289,VALID,26,VALID,1.26953,
2010-07-25, 02:09:04,VALID,998.98,VALID,0,VALID,94.0427,VALID,0,VALID,22.5306,VALID,38,VALID,1.29492,
2010-07-25, 02:10:04,VALID,998.986,VALID,0,VALID,94.0427,VALID,0,VALID,22.4916,VALID,36,VALID,1.25,
2010-07-25, 02:11:04,VALID,998.992,VALID,0,VALID,94.0427,VALID,0,VALID,22.4721,VALID,36,VALID,0.880469,
2010-07-25, 02:12:04,VALID,999.013,VALID,0,VALID,94.0274,VALID,0,VALID,22.4526,VALID,39,VALID,0.767578,
2010-07-25, 02:13:04,VALID,999.008,VALID,0,VALID,94.0427,VALID,0,VALID,22.4526,VALID,56,VALID,0.980078,
2010-07-25, 02:14:04,VALID,999.004,VALID,0,VALID,94.0198,VALID,0.112286,VALID,22.4314,VALID,57,VALID,0.765234,
2010-07-25, 02:15:04,VALID,999.002,VALID,0,VALID,94.058,VALID,0,VALID,22.4331,VALID,57,VALID,0.752344,
2010-07-25, 02:16:04,VALID,998.97,VALID,0.5,VALID,94.0503,VALID,0,VALID,22.4314,VALID,57,VALID,0.302344,
2010-07-25, 02:17:04,VALID,998.989,VALID,0,VALID,94.0732,VALID,0,VALID,22.4526,VALID,57,VALID,0,
2010-07-25, 02:18:04,VALID,998.998,VALID,0,VALID,94.0732,VALID,0,VALID,22.4721,VALID,57,VALID,0,
2010-07-25, 02:19:04,VALID,999,VALID,0,VALID,94.0885,VALID,0,VALID,22.4721,VALID,57,VALID,0,
2010-07-25, 02:20:04,VALID,998.986,VALID,0,VALID,94.0808,VALID,0,VALID,22.4509,VALID,67,VALID,0.484375,
2010-07-25, 02:21:04,VALID,998.975,VALID,0,VALID,94.0885,VALID,0,VALID,22.4721,VALID,174,VALID,0.817578,
2010-07-25, 02:22:04,VALID,998.945,VALID,0,VALID,94.0885,VALID,0,VALID,22.4509,VALID,178,VALID,0.808594,
2010-07-25, 02:23:04,VALID,998.938,VALID,0,VALID,94.0808,VALID,0,VALID,22.4721,VALID,180,VALID,0.639453,
2010-07-25, 02:24:04,VALID,998.939,VALID,0,VALID,94.0808,VALID,0,VALID,22.4331,VALID,181,VALID,0.377734,
2010-07-25, 02:25:04,VALID,998.94,VALID,0,VALID,94.119,VALID,0,VALID,22.4119,VALID,181,VALID,0,
2010-07-25, 02:26:04,VALID,998.992,VALID,0,VALID,94.0961,VALID,0,VALID,22.4526,VALID,181,VALID,0,
2010-07-25, 02:27:04,VALID,998.956,VALID,0,VALID,94.0808,VALID,0,VALID,22.4721,VALID,181,VALID,0,
2010-07-25, 02:28:04,VALID,998.974,VALID,0,VALID,94.0961,VALID,0,VALID,22.5111,VALID,207,VALID,0,
2010-07-25, 02:29:04,VALID,998.969,VALID,0,VALID,94.1114,VALID,0,VALID,22.5306,VALID,293,VALID,0.141016,
2010-07-25, 02:30:04,VALID,998.973,VALID,0,VALID,94.1266,VALID,0,VALID,22.5306,VALID,298,VALID,0.775781,
2010-07-25, 02:31:04,VALID,998.979,VALID,0,VALID,94.1037,VALID,0,VALID,22.5501,VALID,298,VALID,0.389453,
2010-07-25, 02:32:04,VALID,998.981,VALID,0,VALID,94.1266,VALID,0,VALID,22.5696,VALID,298,VALID,0.454297,
2010-07-25, 02:33:04,VALID,998.924,VALID,0,VALID,94.1266,VALID,0,VALID,22.5696,VALID,298,VALID,0,
2010-07-25, 02:34:04,VALID,998.944,VALID,0,VALID,94.1266,VALID,0,VALID,22.5696,VALID,298,VALID,0,
2010-07-25, 02:35:04,VALID,998.968,VALID,0,VALID,94.1266,VALID,0,VALID,22.5696,VALID,298,VALID,0,
2010-07-25, 02:36:04,VALID,998.961,VALID,0,VALID,94.1343,VALID,0,VALID,22.5892,VALID,298,VALID,0,
2010-07-25, 02:37:04,VALID,998.941,VALID,0,VALID,94.1343,VALID,0,VALID,22.5484,VALID,298,VALID,0,
2010-07-25, 02:38:04,VALID,998.919,VALID,0,VALID,94.1571,VALID,0,VALID,22.5484,VALID,298,VALID,0,
2010-07-25, 02:39:04,VALID,998.914,VALID,0,VALID,94.1266,VALID,0,VALID,22.5892,VALID,296,VALID,0,
2010-07-25, 02:40:04,VALID,998.878,VALID,0,VALID,94.1419,VALID,0,VALID,22.5892,VALID,232,VALID,0.953906,
2010-07-25, 02:41:04,VALID,998.896,VALID,0,VALID,94.1419,VALID,0,VALID,22.5696,VALID,233,VALID,0.945703,
2010-07-25, 02:42:04,VALID,998.849,VALID,0,VALID,94.1419,VALID,0,VALID,22.5696,VALID,227,VALID,0.938281,
2010-07-25, 02:43:04,VALID,998.851,VALID,0,VALID,94.1648,VALID,0,VALID,22.5696,VALID,220,VALID,0.785156,
2010-07-25, 02:44:04,VALID,998.879,VALID,0,VALID,94.1571,VALID,0,VALID,22.5501,VALID,220,VALID,0.479297,
2010-07-25, 02:45:04,VALID,998.881,VALID,0,VALID,94.1571,VALID,0,VALID,22.5501,VALID,220,VALID,0.351953,
2010-07-25, 02:46:04,VALID,998.899,VALID,0,VALID,94.1648,VALID,0,VALID,22.5696,VALID,220,VALID,0.0617188,
2010-07-25, 02:47:04,VALID,998.885,VALID,0,VALID,94.1571,VALID,0,VALID,22.5696,VALID,220,VALID,0.00234375,
2010-07-25, 02:48:04,VALID,998.902,VALID,0,VALID,94.1724,VALID,0,VALID,22.5696,VALID,220,VALID,0.204297,
2010-07-25, 02:49:04,VALID,998.896,VALID,0,VALID,94.1724,VALID,0,VALID,22.5696,VALID,220,VALID,0,
2010-07-25, 02:50:04,VALID,998.887,VALID,0,VALID,94.1571,VALID,0.112286,VALID,22.5501,VALID,220,VALID,0,
2010-07-25, 02:51:04,VALID,998.922,VALID,0,VALID,94.1648,VALID,0,VALID,22.5289,VALID,220,VALID,0,
2010-07-25, 02:52:04,VALID,998.906,VALID,0,VALID,94.1724,VALID,0,VALID,22.5094,VALID,220,VALID,0.0140625,
2010-07-25, 02:53:04,VALID,998.9,VALID,0,VALID,94.18,VALID,0,VALID,22.5306,VALID,220,VALID,0,
2010-07-25, 02:54:04,VALID,998.928,VALID,0,VALID,94.1877,VALID,0,VALID,22.5306,VALID,220,VALID,0,
2010-07-25, 02:55:04,VALID,998.911,VALID,0,VALID,94.18,VALID,0,VALID,22.5111,VALID,220,VALID,0,
2010-07-25, 02:56:04,VALID,998.912,VALID,0,VALID,94.1724,VALID,0,VALID,22.5306,VALID,220,VALID,0,
2010-07-25, 02:57:04,VALID,998.917,VALID,0,VALID,94.1724,VALID,0,VALID,22.5111,VALID,220,VALID,0,
2010-07-25, 02:58:04,VALID,998.913,VALID,0,VALID,94.1724,VALID,0,VALID,22.5111,VALID,220,VALID,0,
2010-07-25, 02:59:04,VALID,998.918,VALID,0,VALID,94.18,VALID,0,VALID,22.5111,VALID,220,VALID,0,
2010-07-25, 03:00:04,VALID,998.938,VALID,0,VALID,94.1877,VALID,0.112286,VALID,22.5289,VALID,220,VALID,0,
2010-07-25, 03:01:04,VALID,998.959,VALID,0,VALID,94.1877,VALID,0,VALID,22.5306,VALID,220,VALID,0,
2010-07-25, 03:02:04,VALID,998.934,VALID,0,VALID,94.2029,VALID,0.112286,VALID,22.5094,VALID,220,VALID,0,
2010-07-25, 03:03:04,VALID,998.922,VALID,0,VALID,94.2105,VALID,0,VALID,22.4899,VALID,220,VALID,0,
2010-07-25, 03:04:04,VALID,998.951,VALID,0,VALID,94.1953,VALID,0,VALID,22.4899,VALID,220,VALID,0,
2010-07-25, 03:05:04,VALID,998.955,VALID,0,VALID,94.2182,VALID,0,VALID,22.5111,VALID,220,VALID,0,
2010-07-25, 03:06:04,VALID,998.932,VALID,0,VALID,94.2029,VALID,0,VALID,22.5111,VALID,220,VALID,0,
2010-07-25, 03:07:04,VALID,998.927,VALID,0,VALID,94.18,VALID,0,VALID,22.4916,VALID,220,VALID,0,
2010-07-25, 03:08:04,VALID,998.946,VALID,0,VALID,94.1953,VALID,0,VALID,22.4509,VALID,220,VALID,0,
2010-07-25, 03:09:04,VALID,998.917,VALID,0,VALID,94.2105,VALID,0,VALID,22.4509,VALID,220,VALID,0,
2010-07-25, 03:10:04,VALID,998.933,VALID,0,VALID,94.2105,VALID,0,VALID,22.4721,VALID,220,VALID,0,
2010-07-25, 03:11:04,VALID,998.946,VALID,0,VALID,94.2182,VALID,0,VALID,22.4721,VALID,220,VALID,0,
2010-07-25, 03:12:04,VALID,998.954,VALID,0,VALID,94.2258,VALID,0,VALID,22.4721,VALID,220,VALID,0,
2010-07-25, 03:13:04,VALID,998.976,VALID,0,VALID,94.2182,VALID,0,VALID,22.4916,VALID,220,VALID,0,
2010-07-25, 03:14:04,VALID,998.971,VALID,0,VALID,94.2182,VALID,0,VALID,22.4721,VALID,220,VALID,0,
2010-07-25, 03:15:04,VALID,998.946,VALID,0,VALID,94.2182,VALID,0,VALID,22.4314,VALID,220,VALID,0,
2010-07-25, 03:16:04,VALID,998.965,VALID,0,VALID,94.2182,VALID,0.112286,VALID,22.4314,VALID,220,VALID,0,
2010-07-25, 03:17:04,VALID,998.958,VALID,0,VALID,94.2258,VALID,0,VALID,22.4314,VALID,220,VALID,0,
2010-07-25, 03:18:04,VALID,998.968,VALID,0,VALID,94.2105,VALID,0,VALID,22.4526,VALID,220,VALID,0,
2010-07-25, 03:19:04,VALID,998.969,VALID,0,VALID,94.2411,VALID,0,VALID,22.4526,VALID,220,VALID,0,
2010-07-25, 03:20:04,VALID,998.958,VALID,0,VALID,94.2487,VALID,0,VALID,22.4526,VALID,220,VALID,0,
2010-07-25, 03:21:04,VALID,998.969,VALID,0,VALID,94.2487,VALID,0,VALID,22.4119,VALID,219,VALID,0,
2010-07-25, 03:22:04,VALID,999.024,VALID,0,VALID,94.2334,VALID,0,VALID,22.4721,VALID,103,VALID,0.754297,
2010-07-25, 03:23:04,VALID,998.99,VALID,0,VALID,94.2487,VALID,0,VALID,22.5306,VALID,95,VALID,0.864453,
2010-07-25, 03:24:04,VALID,999,VALID,0,VALID,94.2487,VALID,0,VALID,22.5501,VALID,92,VALID,0.793359,
2010-07-25, 03:25:04,VALID,998.98,VALID,0,VALID,94.2258,VALID,0,VALID,22.5696,VALID,92,VALID,0.7125,
2010-07-25, 03:26:04,VALID,998.982,VALID,0,VALID,94.2258,VALID,0,VALID,22.5892,VALID,90,VALID,0.746094,
2010-07-25, 03:27:04,VALID,998.975,VALID,0,VALID,94.2716,VALID,0,VALID,22.5892,VALID,84,VALID,0.694922,
2010-07-25, 03:28:04,VALID,998.983,VALID,0,VALID,94.264,VALID,0,VALID,22.5696,VALID,76,VALID,0.741797,
2010-07-25, 03:29:04,VALID,999.02,VALID,0,VALID,94.2487,VALID,0,VALID,22.5892,VALID,66,VALID,0.769141,
2010-07-25, 03:30:04,VALID,999.05,VALID,0,VALID,94.2411,VALID,0,VALID,22.5289,VALID,66,VALID,0.89375,
2010-07-25, 03:31:04,VALID,999.065,VALID,0,VALID,94.2487,VALID,0,VALID,22.5306,VALID,56,VALID,1.03242,
2010-07-25, 03:32:04,VALID,999.067,VALID,0,VALID,94.2411,VALID,0,VALID,22.5111,VALID,53,VALID,1.17148,
2010-07-25, 03:33:04,VALID,999.09,VALID,0,VALID,94.2563,VALID,0,VALID,22.4899,VALID,53,VALID,0.991797,
2010-07-25, 03:34:04,VALID,999.037,VALID,0,VALID,94.2411,VALID,0,VALID,22.5111,VALID,49,VALID,0.876172,
2010-07-25, 03:35:04,VALID,999.051,VALID,0,VALID,94.2487,VALID,0,VALID,22.4899,VALID,43,VALID,0.698438,
2010-07-25, 03:36:04,VALID,999.047,VALID,0,VALID,94.2716,VALID,0,VALID,22.4721,VALID,43,VALID,0.455859,
2010-07-25, 03:37:04,VALID,999.042,VALID,0,VALID,94.264,VALID,0,VALID,22.4721,VALID,44,VALID,0.415234,
2010-07-25, 03:38:04,VALID,999.037,VALID,0,VALID,94.2563,VALID,0,VALID,22.4721,VALID,48,VALID,0.455469,
2010-07-25, 03:39:04,VALID,999.009,VALID,0,VALID,94.2563,VALID,0,VALID,22.4721,VALID,67,VALID,0.572266,
2010-07-25, 03:40:04,VALID,998.993,VALID,0,VALID,94.264,VALID,0,VALID,22.4721,VALID,71,VALID,0,
2010-07-25, 03:41:04,VALID,999.003,VALID,0,VALID,94.2563,VALID,0,VALID,22.4526,VALID,71,VALID,0,
2010-07-25, 03:42:04,VALID,999.023,VALID,0,VALID,94.2716,VALID,0,VALID,22.4721,VALID,71,VALID,0,
2010-07-25, 03:43:04,VALID,999.022,VALID,0,VALID,94.2868,VALID,0,VALID,22.4526,VALID,71,VALID,0,
2010-07-25, 03:44:04,VALID,999.069,VALID,0,VALID,94.2716,VALID,0,VALID,22.4526,VALID,71,VALID,0,
2010-07-25, 03:45:04,VALID,999.071,VALID,0,VALID,94.2792,VALID,0,VALID,22.4526,VALID,71,VALID,0,
2010-07-25, 03:46:04,VALID,999.114,VALID,0,VALID,94.2868,VALID,0,VALID,22.4314,VALID,71,VALID,0,
2010-07-25, 03:47:04,VALID,999.131,VALID,0,VALID,94.2868,VALID,0,VALID,22.4331,VALID,71,VALID,0,